View from above orbital plane
|
View from above satellite
|
Ground track
|
The orbit data is extracted from the following two-line orbital elements,
1 28773U 05025A 21018.40530349 .00001080 00000-0 47515-4 0 9994
2 28773 31.3828 58.5798 0004574 212.0436 147.9934 15.18018574856640
Epoch (UTC): | 18 January 2021 09:43:38 |
Eccentricity: | 0.0004574 |
inclination: | 31.3828° |
perigee height: | 508 km |
apogee height: | 515 km |
right ascension of ascending node: | 58.5798° |
argument of perigee: | 212.0436° |
revolutions per day: | 15.18018574 |
mean anomaly at epoch: | 147.9934° |
orbit number at epoch: | 85664 |
The dashed part of the orbit path shows where the satellite is in the earth's shadow,
|
|